Location: Hylvaty SDH
(49.9612°N, 16.4057°E)
Time: 20:41:55
(UTC+01:00)

Vanguard 1 Rocket - Pass Details

Date: 08 October 2020
Orbit: 656 x 4221 km, 34.3° (Epoch: 30 October)

Event Time Altitude Azimuth Distance (km) Brightness Sun altitude
Rises 18:27:52 0° 249° (WSW) 4,485 12.9 -2.6°
Reaches altitude 10° 18:30:30 10° 241° (WSW) 3,847 12.0 -3.0°
Maximum altitude 18:40:18 41° 176° (S) 3,193 10.2 -4.5°
Drops below altitude 10° 18:57:44 10° 116° (ESE) 6,694 11.2 -7.3°
Enters shadow 19:02:16 - 112° (ESE) 7,684 11.5 -8.1°
Sets 19:04:16 0° 110° (ESE) 8,108 - -8.4°
